User: anonymous   Login
Location: Ostrava
(49.8330°N, 18.2830°E)
Time: 03:47:43
(UTC+02:00)
Language:

Cosmos 1400 Rocket - Orbit

View from above orbital plane
View from above orbital plane
View from above satellite
View from above satellite

Ground track
Ground track

The orbit data is extracted from the following two-line orbital elements,

1 13403U 82079B   17172.83812126 -.00000149 +00000-0 -11495-4 0  9996
2 13403 081.1699 264.0112 0032314 262.0308 097.7248 15.06586484897207
Epoch (UTC): 21 June 2017 20:06:53
Eccentricity: 0.0032314
inclination: 81.1699°
perigee height: 524 km
apogee height: 569 km
right ascension of ascending node: 264.0112°
argument of perigee: 262.0308°
revolutions per day: 15.06586484
mean anomaly at epoch: 97.7248°
orbit number at epoch: 89720

The dashed part of the orbit path shows where the satellite is in the earth's shadow,  

DLR